Wheeler Observed Data For Previous 48 Hours

Caption
Day and Hour Reservoir Elevation (behind dam)* Tailwater Elevation (below dam)* Average Hourly Discharge*
1/17/2018 1 AM CST 551.75 505.36 28,484
1/17/2018 2 AM CST 551.75 505.41 28,482
1/17/2018 3 AM CST 551.76 505.47 28,535
1/17/2018 4 AM CST 551.74 505.51 39,628
1/17/2018 5 AM CST 551.70 505.73 52,299
1/17/2018 6 AM CST 551.59 505.69 63,338
1/17/2018 7 AM CST 551.51 505.93 72,413
1/17/2018 8 AM CST 551.42 505.95 73,361
1/17/2018 9 AM CST 551.36 505.93 73,112
1/17/2018 10 AM CST 551.42 505.55 59,604
1/17/2018 11 AM CST 551.47 505.55 37,786
1/17/2018 12 PM CST 551.50 505.62 27,148
1/17/2018 1 PM CST 551.50 505.45 18,800
1/17/2018 2 PM CST 551.55 505.47 18,794
1/17/2018 3 PM CST 551.58 505.47 18,871
1/17/2018 4 PM CST 551.59 505.42 28,107
1/17/2018 5 PM CST 551.55 505.52 39,103
1/17/2018 6 PM CST 551.51 505.70 52,657
1/17/2018 7 PM CST 551.48 505.66 63,359
1/17/2018 8 PM CST 551.42 505.72 63,390
1/17/2018 9 PM CST 551.36 505.75 63,503
1/17/2018 10 PM CST 551.37 505.61 50,924
1/17/2018 11 PM CST 551.41 505.56 37,952
1/18/2018 12 AM CST 551.41 505.64 37,746
1/18/2018 1 AM CST 551.41 505.63 50,297
1/18/2018 2 AM CST 551.43 505.70 50,459
1/18/2018 3 AM CST 551.39 505.70 50,490
1/18/2018 4 AM CST 551.34 505.80 62,716
1/18/2018 5 AM CST 551.28 505.95 63,185
1/18/2018 6 AM CST 551.24 506.08 72,478
1/18/2018 7 AM CST 551.05 507.38 86,316
1/18/2018 8 AM CST 551.14 506.20 79,250
1/18/2018 9 AM CST 551.13 505.89 69,377
1/18/2018 10 AM CST 551.13 505.91 58,841
1/18/2018 11 AM CST 551.20 505.82 41,391
1/18/2018 12 PM CST 551.22 505.64 30,027
1/18/2018 1 PM CST 551.24 505.79 22,486
1/18/2018 2 PM CST 551.28 505.69 21,695
1/18/2018 3 PM CST 551.34 505.64 21,807
1/18/2018 4 PM CST 551.35 505.68 22,339
1/18/2018 5 PM CST 551.35 505.64 30,659
1/18/2018 6 PM CST 551.34 505.68 40,609
1/18/2018 7 PM CST 551.30 505.79 50,228
1/18/2018 8 PM CST 551.28 505.75 50,340
1/18/2018 9 PM CST 551.23 505.76 50,449
1/18/2018 10 PM CST 551.25 505.64 37,963
1/18/2018 11 PM CST 551.26 505.71 37,690
1/19/2018 12 AM CST 551.35 505.49 25,504

Elevations are in feet above sea level. Discharges are in cubic feet per second and are reported at the end of the hour.